Location: Peterborough
(44.3091°N, 78.3197°W)
Time: 23:29:09
(UTC-05:00)

Vanguard 1 Rocket - Pass Details

Date: 16 December 2023
Orbit: 654 x 4218 km, 34.3° (Epoch: 24 February)

Event Time Altitude Azimuth Distance (km) Brightness Sun altitude
Exits shadow 23:59:16 17° 96° (E) 6,576 11.6 -68.9°
Drops below altitude 10° 00:04:01 10° 87° (E) 7,023 11.8 -69.0°
Sets 00:10:00 0° 78° (ENE) 7,699 12.2 -69.0°
